Location: Hillern
(53.0557°N, 9.8577°E)
Time: 00:15:39
(UTC+00:00)

Cosmos 1151 Rocket - Pass Details

Date: 19 May 2025
Orbit: 586 x 606 km, 82.5° (Epoch: 22 June)

Event Time Altitude Azimuth Distance (km) Brightness Sun altitude
Exits shadow 22:19:35 23° 128° (SE) 1,272 4.2 -15.9°
Maximum altitude 22:21:12 30° 90° (E) 1,068 4.1 -16.0°
Drops below altitude 10° 22:24:54 10° 29° (NNE) 1,923 6.3 -16.1°
Sets 22:27:18 0° 19° (NNE) 2,830 7.5 -16.2°
